Time,TemperatureF,DewpointF,PressureIn,WindDirection,WindDirectionDegrees,WindSpeedMPH,WindSpeedGustMPH,Humidity,HourlyPrecipIn,Conditions,Clouds,dailyrainin,SoftwareType,DateUTC
2013-10-07 00:05:00,62.6,14.0,30.00,NW,319,3.0,-999.0,15,-99.99,,,0.00,weatherlink.com 1.10,2013-10-07 07:05:00,
2013-10-07 00:20:00,62.2,15.0,29.99,NW,319,2.0,-999.0,16,-99.99,,,0.00,weatherlink.com 1.10,2013-10-07 07:20:00,
2013-10-07 00:35:00,62.2,15.0,30.00,NW,319,2.0,-999.0,16,-99.99,,,0.00,weatherlink.com 1.10,2013-10-07 07:35:00,
2013-10-07 00:50:00,62.0,16.0,30.00,NW,319,0.0,-999.0,17,-99.99,,,0.00,weatherlink.com 1.10,2013-10-07 07:50:00,
2013-10-07 01:05:00,61.6,16.0,30.00,NW,319,2.0,-999.0,17,-99.99,,,0.00,weatherlink.com 1.10,2013-10-07 08:05:00,
2013-10-07 01:20:00,61.1,16.0,30.00,NW,319,1.0,-999.0,17,-99.99,,,0.00,weatherlink.com 1.10,2013-10-07 08:20:00,
2013-10-07 01:35:00,60.2,16.0,30.00,NW,319,0.0,-999.0,18,-99.99,,,0.00,weatherlink.com 1.10,2013-10-07 08:35:00,
2013-10-07 01:50:00,59.5,16.0,29.99,NW,319,0.0,-999.0,18,-99.99,,,0.00,weatherlink.com 1.10,2013-10-07 08:50:00,
2013-10-07 02:05:00,58.8,16.0,29.98,NW,319,0.0,-999.0,19,-99.99,,,0.00,weatherlink.com 1.10,2013-10-07 09:05:00,
2013-10-07 02:20:00,58.2,17.0,29.98,NW,319,0.0,-999.0,20,-99.99,,,0.00,weatherlink.com 1.10,2013-10-07 09:20:00,
2013-10-07 02:35:00,58.3,16.0,29.98,NW,319,2.0,-999.0,19,-99.99,,,0.00,weatherlink.com 1.10,2013-10-07 09:35:00,
2013-10-07 02:50:00,58.9,16.0,29.98,NW,319,2.0,-999.0,19,-99.99,,,0.00,weatherlink.com 1.10,2013-10-07 09:50:00,
2013-10-07 03:05:00,59.0,17.0,29.97,NW,319,0.0,-999.0,19,-99.99,,,0.00,weatherlink.com 1.10,2013-10-07 10:05:00,
2013-10-07 03:20:00,58.8,16.0,29.97,NW,319,2.0,-999.0,19,-99.99,,,0.00,weatherlink.com 1.10,2013-10-07 10:20:00,
2013-10-07 03:35:00,58.3,16.0,29.97,NW,319,1.0,-999.0,19,-99.99,,,0.00,weatherlink.com 1.10,2013-10-07 10:35:00,
2013-10-07 03:50:00,58.2,16.0,29.97,NW,319,0.0,-999.0,19,-99.99,,,0.00,weatherlink.com 1.10,2013-10-07 10:50:00,
2013-10-07 04:05:00,57.9,16.0,29.96,NW,319,1.0,-999.0,19,-99.99,,,0.00,weatherlink.com 1.10,2013-10-07 11:05:00,
2013-10-07 04:20:00,58.0,16.0,29.97,NW,319,3.0,-999.0,19,-99.99,,,0.00,weatherlink.com 1.10,2013-10-07 11:20:00,
2013-10-07 04:35:00,57.4,16.0,29.97,NW,319,2.0,-999.0,20,-99.99,,,0.00,weatherlink.com 1.10,2013-10-07 11:35:00,
2013-10-07 04:50:00,56.4,17.0,29.97,NW,319,2.0,-999.0,21,-99.99,,,0.00,weatherlink.com 1.10,2013-10-07 11:50:00,
2013-10-07 05:05:00,55.7,17.0,29.96,NW,319,2.0,-999.0,22,-99.99,,,0.00,weatherlink.com 1.10,2013-10-07 12:05:00,
2013-10-07 05:20:00,55.3,17.0,29.97,NW,319,1.0,-999.0,22,-99.99,,,0.00,weatherlink.com 1.10,2013-10-07 12:20:00,
2013-10-07 05:35:00,55.0,18.0,29.96,NW,319,0.0,-999.0,23,-99.99,,,0.00,weatherlink.com 1.10,2013-10-07 12:35:00,
2013-10-07 05:50:00,54.7,18.0,29.96,NW,319,0.0,-999.0,24,-99.99,,,0.00,weatherlink.com 1.10,2013-10-07 12:50:00,
2013-10-07 06:05:00,54.6,18.0,29.97,NW,319,0.0,-999.0,24,-99.99,,,0.00,weatherlink.com 1.10,2013-10-07 13:05:00,
2013-10-07 06:20:00,54.6,18.0,29.97,NW,319,0.0,-999.0,24,-99.99,,,0.00,weatherlink.com 1.10,2013-10-07 13:20:00,
2013-10-07 06:35:00,54.6,19.0,29.97,NW,319,0.0,-999.0,25,-99.99,,,0.00,weatherlink.com 1.10,2013-10-07 13:35:00,
2013-10-07 06:51:00,55.3,18.0,29.97,NW,319,1.0,-999.0,23,-99.99,,,0.00,weatherlink.com 1.10,2013-10-07 13:51:00,
2013-10-07 07:06:00,56.5,19.0,29.97,NW,319,0.0,-999.0,23,-99.99,,,0.00,weatherlink.com 1.10,2013-10-07 14:06:00,
2013-10-07 07:20:00,58.3,20.0,29.97,NW,319,0.0,-999.0,23,-99.99,,,0.00,weatherlink.com 1.10,2013-10-07 14:20:00,
2013-10-07 07:36:00,60.6,22.0,29.97,NW,319,0.0,-999.0,23,-99.99,,,0.00,weatherlink.com 1.10,2013-10-07 14:36:00,
2013-10-07 07:51:00,60.8,25.0,29.98,NW,319,0.0,-999.0,25,-99.99,,,0.00,weatherlink.com 1.10,2013-10-07 14:51:00,
2013-10-07 08:05:00,61.2,25.0,29.98,NW,319,0.0,-999.0,25,-99.99,,,0.00,weatherlink.com 1.10,2013-10-07 15:05:00,
2013-10-07 08:20:00,62.6,26.0,29.98,NW,319,0.0,-999.0,25,-99.99,,,0.00,weatherlink.com 1.10,2013-10-07 15:20:00,
2013-10-07 08:36:00,66.4,25.0,29.98,NW,319,0.0,-999.0,21,-99.99,,,0.00,weatherlink.com 1.10,2013-10-07 15:36:00,
2013-10-07 08:50:00,69.5,24.0,29.98,NW,319,0.0,-999.0,18,-99.99,,,0.00,weatherlink.com 1.10,2013-10-07 15:50:00,
2013-10-07 09:06:00,72.7,24.0,29.98,NW,319,0.0,-999.0,16,-99.99,,,0.00,weatherlink.com 1.10,2013-10-07 16:06:00,
2013-10-07 09:21:00,73.4,24.0,29.98,NW,319,0.0,-999.0,16,-99.99,,,0.00,weatherlink.com 1.10,2013-10-07 16:21:00,
2013-10-07 09:35:00,73.2,24.0,29.98,NW,319,2.0,-999.0,16,-99.99,,,0.00,weatherlink.com 1.10,2013-10-07 16:35:00,
2013-10-07 09:51:00,74.1,26.0,29.98,NW,319,0.0,-999.0,17,-99.99,,,0.00,weatherlink.com 1.10,2013-10-07 16:51:00,
2013-10-07 10:06:00,74.3,24.0,29.98,NW,315,0.0,-999.0,15,-99.99,,,0.00,weatherlink.com 1.10,2013-10-07 17:06:00,
2013-10-07 10:21:00,77.1,23.0,29.98,NW,320,3.0,-999.0,13,-99.99,,,0.00,weatherlink.com 1.10,2013-10-07 17:21:00,
2013-10-07 10:36:00,80.0,21.0,29.97,NW,323,3.0,-999.0,11,-99.99,,,0.00,weatherlink.com 1.10,2013-10-07 17:36:00,
2013-10-07 10:51:00,82.1,20.0,29.97,NW,321,2.0,-999.0,10,-99.99,,,0.00,weatherlink.com 1.10,2013-10-07 17:51:00,
2013-10-07 11:07:00,83.0,21.0,29.96,NNW,341,6.0,-999.0,10,-99.99,,,0.00,weatherlink.com 1.10,2013-10-07 18:07:00,
2013-10-07 11:21:00,83.6,21.0,29.95,NNW,348,3.0,-999.0,10,-99.99,,,0.00,weatherlink.com 1.10,2013-10-07 18:21:00,
2013-10-07 11:36:00,84.3,19.0,29.95,WNW,298,3.0,-999.0,9,-99.99,,,0.00,weatherlink.com 1.10,2013-10-07 18:36:00,
2013-10-07 11:52:00,85.7,21.0,29.94,NNW,338,5.0,-999.0,9,-99.99,,,0.00,weatherlink.com 1.10,2013-10-07 18:52:00,
2013-10-07 12:06:00,87.5,19.0,29.94,NW,309,3.0,-999.0,8,-99.99,,,0.00,weatherlink.com 1.10,2013-10-07 19:06:00,
2013-10-07 12:21:00,86.8,21.0,29.93,NW,307,1.0,-999.0,9,-99.99,,,0.00,weatherlink.com 1.10,2013-10-07 19:21:00,
2013-10-07 12:36:00,87.3,19.0,29.93,WNW,292,1.0,-999.0,8,-99.99,,,0.00,weatherlink.com 1.10,2013-10-07 19:36:00,
2013-10-07 12:52:00,86.9,21.0,29.92,WNW,293,4.0,-999.0,9,-99.99,,,0.00,weatherlink.com 1.10,2013-10-07 19:52:00,
2013-10-07 13:06:00,86.3,21.0,29.91,WNW,293,4.0,-999.0,9,-99.99,,,0.00,weatherlink.com 1.10,2013-10-07 20:06:00,
2013-10-07 13:22:00,86.7,21.0,29.90,NNW,329,4.0,-999.0,9,-99.99,,,0.00,weatherlink.com 1.10,2013-10-07 20:22:00,
2013-10-07 13:37:00,87.2,22.0,29.90,WNW,301,6.0,-999.0,9,-99.99,,,0.00,weatherlink.com 1.10,2013-10-07 20:37:00,
2013-10-07 13:51:00,88.2,22.0,29.89,NW,325,4.0,-999.0,9,-99.99,,,0.00,weatherlink.com 1.10,2013-10-07 20:51:00,
2013-10-07 14:07:00,88.3,23.0,29.88,NW,322,2.0,-999.0,9,-99.99,,,0.00,weatherlink.com 1.10,2013-10-07 21:07:00,
2013-10-07 14:21:00,88.5,23.0,29.88,NW,321,3.0,-999.0,9,-99.99,,,0.00,weatherlink.com 1.10,2013-10-07 21:21:00,
2013-10-07 14:37:00,89.9,21.0,29.88,NW,315,5.0,-999.0,8,-99.99,,,0.00,weatherlink.com 1.10,2013-10-07 21:37:00,
2013-10-07 14:52:00,90.2,21.0,29.87,NW,312,1.0,-999.0,8,-99.99,,,0.00,weatherlink.com 1.10,2013-10-07 21:52:00,
2013-10-07 15:07:00,90.0,21.0,29.87,NW,312,2.0,-999.0,8,-99.99,,,0.00,weatherlink.com 1.10,2013-10-07 22:07:00,
2013-10-07 15:21:00,89.7,21.0,29.86,NW,313,1.0,-999.0,8,-99.99,,,0.00,weatherlink.com 1.10,2013-10-07 22:21:00,
2013-10-07 15:36:00,89.6,21.0,29.86,NW,310,2.0,-999.0,8,-99.99,,,0.00,weatherlink.com 1.10,2013-10-07 22:36:00,
2013-10-07 15:52:00,89.8,21.0,29.86,NW,313,2.0,-999.0,8,-99.99,,,0.00,weatherlink.com 1.10,2013-10-07 22:52:00,
2013-10-07 16:07:00,89.2,20.0,29.85,NW,309,0.0,-999.0,8,-99.99,,,0.00,weatherlink.com 1.10,2013-10-07 23:07:00,
2013-10-07 16:22:00,88.9,23.0,29.85,NW,309,3.0,-999.0,9,-99.99,,,0.00,weatherlink.com 1.10,2013-10-07 23:22:00,
2013-10-07 16:36:00,88.5,25.0,29.85,NW,314,0.0,-999.0,10,-99.99,,,0.00,weatherlink.com 1.10,2013-10-07 23:36:00,
2013-10-07 16:52:00,88.4,25.0,29.85,NW,314,0.0,-999.0,10,-99.99,,,0.00,weatherlink.com 1.10,2013-10-07 23:52:00,
2013-10-07 17:07:00,88.2,25.0,29.84,NW,314,0.0,-999.0,10,-99.99,,,0.00,weatherlink.com 1.10,2013-10-08 00:07:00,
2013-10-07 17:22:00,87.8,27.0,29.84,NW,314,0.0,-999.0,11,-99.99,,,0.00,weatherlink.com 1.10,2013-10-08 00:22:00,
2013-10-07 17:37:00,87.1,24.0,29.84,NW,314,0.0,-999.0,10,-99.99,,,0.00,weatherlink.com 1.10,2013-10-08 00:37:00,
2013-10-07 17:52:00,86.7,28.0,29.83,NW,314,0.0,-999.0,12,-99.99,,,0.00,weatherlink.com 1.10,2013-10-08 00:52:00,
2013-10-07 18:07:00,86.2,28.0,29.83,NW,314,0.0,-999.0,12,-99.99,,,0.00,weatherlink.com 1.10,2013-10-08 01:07:00,
2013-10-07 18:22:00,84.6,27.0,29.83,NW,314,0.0,-999.0,12,-99.99,,,0.00,weatherlink.com 1.10,2013-10-08 01:22:00,
2013-10-07 18:37:00,83.1,27.0,29.83,NW,314,0.0,-999.0,13,-99.99,,,0.00,weatherlink.com 1.10,2013-10-08 01:37:00,
2013-10-07 18:52:00,81.4,28.0,29.83,NW,314,0.0,-999.0,14,-99.99,,,0.00,weatherlink.com 1.10,2013-10-08 01:52:00,
2013-10-07 19:07:00,79.6,28.0,29.83,NW,314,0.0,-999.0,15,-99.99,,,0.00,weatherlink.com 1.10,2013-10-08 02:07:00,
2013-10-07 19:22:00,77.8,31.0,29.83,NW,314,0.0,-999.0,18,-99.99,,,0.00,weatherlink.com 1.10,2013-10-08 02:22:00,
2013-10-07 19:37:00,76.5,28.0,29.83,NW,314,0.0,-999.0,17,-99.99,,,0.00,weatherlink.com 1.10,2013-10-08 02:37:00,
2013-10-07 19:52:00,75.3,29.0,29.83,NW,314,0.0,-999.0,18,-99.99,,,0.00,weatherlink.com 1.10,2013-10-08 02:52:00,
2013-10-07 20:07:00,73.8,29.0,29.83,NW,314,0.0,-999.0,19,-99.99,,,0.00,weatherlink.com 1.10,2013-10-08 03:07:00,
2013-10-07 20:23:00,73.2,28.0,29.84,NW,314,0.0,-999.0,19,-99.99,,,0.00,weatherlink.com 1.10,2013-10-08 03:23:00,
2013-10-07 20:38:00,71.9,27.0,29.84,NW,314,0.0,-999.0,19,-99.99,,,0.00,weatherlink.com 1.10,2013-10-08 03:38:00,
2013-10-07 20:52:00,74.0,28.0,29.84,NW,314,0.0,-999.0,18,-99.99,,,0.00,weatherlink.com 1.10,2013-10-08 03:52:00,
2013-10-07 21:07:00,73.3,29.0,29.84,NW,314,0.0,-999.0,19,-99.99,,,0.00,weatherlink.com 1.10,2013-10-08 04:07:00,
2013-10-07 21:22:00,71.0,28.0,29.84,NW,314,0.0,-999.0,20,-99.99,,,0.00,weatherlink.com 1.10,2013-10-08 04:22:00,
2013-10-07 21:37:00,69.9,28.0,29.84,NW,314,0.0,-999.0,21,-99.99,,,0.00,weatherlink.com 1.10,2013-10-08 04:37:00,
2013-10-07 21:52:00,69.4,28.0,29.84,NW,314,0.0,-999.0,21,-99.99,,,0.00,weatherlink.com 1.10,2013-10-08 04:52:00,
2013-10-07 22:07:00,70.0,27.0,29.84,NW,314,0.0,-999.0,20,-99.99,,,0.00,weatherlink.com 1.10,2013-10-08 05:07:00,
2013-10-07 22:22:00,70.4,26.0,29.84,NW,314,1.0,-999.0,19,-99.99,,,0.00,weatherlink.com 1.10,2013-10-08 05:22:00,
2013-10-07 22:37:00,70.1,26.0,29.84,NW,314,0.0,-999.0,19,-99.99,,,0.00,weatherlink.com 1.10,2013-10-08 05:37:00,
2013-10-07 22:52:00,69.6,25.0,29.84,NW,313,0.0,-999.0,19,-99.99,,,0.00,weatherlink.com 1.10,2013-10-08 05:52:00,
2013-10-07 23:07:00,67.7,25.0,29.84,NW,313,0.0,-999.0,20,-99.99,,,0.00,weatherlink.com 1.10,2013-10-08 06:07:00,
2013-10-07 23:22:00,67.4,26.0,29.84,NW,313,0.0,-999.0,21,-99.99,,,0.00,weatherlink.com 1.10,2013-10-08 06:22:00,
2013-10-07 23:37:00,66.6,25.0,29.84,NW,313,0.0,-999.0,21,-99.99,,,0.00,weatherlink.com 1.10,2013-10-08 06:37:00,
2013-10-07 23:52:00,66.3,25.0,29.84,NW,313,0.0,-999.0,21,-99.99,,,0.00,weatherlink.com 1.10,2013-10-08 06:52:00,